Whitefield, NH

2:16 AM EDT on March 26, 2017 (GMT -0400)
Mount Washington Regional

Weather History for KHIE - February, 2013

Change the Weather History Date:

Tuesday, February 19, 2013

  Actual Average Record
Temperature  
Mean Temperature 20 °F -  
Max Temperature 43 °F 29 °F 50 °F (1997)
Min Temperature -4 °F 2 °F -15 °F (2007)
Degree Days  
Heating Degree Days 46    
Moisture  
Dew Point 8 °F    
Average Humidity 58    
Maximum Humidity 82    
Minimum Humidity 27    
Precipitation  
Precipitation 0.00 in - - ()
Sea Level Pressure  
Sea Level Pressure 29.91 in    
Wind  
Wind Speed 2 mph (South)    
Max Wind Speed 17 mph    
Max Gust Speed 39 mph    
Visibility 10 miles    
Events Snow    
Averages and records for this station are not official NWS values.
T = Trace of Precipitation, MM = Missing Value Source: NWS Daily Summary

Daily Weather History Graph

Daily Weather History Graph

Search for Another Location

Airport or City:

Trip Planner

Search our weather history database for the weather conditions in past years. The results will help you decide how hot, cold, wet, or windy it might be!

Date:

Astronomy

Feb. 19, 2013 Rise Set
Actual Time 6:39 AM EST 5:21 PM EST
Civil Twilight 6:09 AM EST 5:50 PM EST
Nautical Twilight 5:36 AM EST 6:24 PM EST
Astronomical Twilight 5:02 AM EST 6:58 PM EST
Moon 11:43 AM EST (2/19) 2:15 AM EST (2/19)
Length of Visible Light 11h 40m
Length of Day
10h 41m
Waxing Gibbous, 67% of the Moon is Illuminated
Feb 19
Waxing Gibbous
Feb 25
Full
Mar 4
Last Quarter
Mar 11
New
Mar 19
First Quarter

Hourly Weather History & Observations

Time (EST) Temp. Windchill Dew Point Humidity Pressure Visibility Wind Dir Wind Speed Gust Speed Precip Events Conditions
12:52 AM -2.9 °F - -9.9 °F 72% 30.14 in 10.0 mi Calm Calm - N/A   Clear
1:52 AM -2.9 °F - -9.9 °F 72% 30.15 in 10.0 mi Calm Calm - N/A   Clear
2:52 AM -4.0 °F - -9.9 °F 76% 30.17 in 10.0 mi Calm Calm - N/A   Partly Cloudy
3:52 AM -0.0 °F - -7.1 °F 72% 30.17 in 10.0 mi Calm Calm - N/A   Overcast
4:52 AM 1.9 °F - -6.0 °F 69% 30.17 in 10.0 mi Calm Calm - N/A   Mostly Cloudy
5:52 AM 1.0 °F - -6.0 °F 72% 30.14 in 10.0 mi Calm Calm - N/A   Clear
6:52 AM 1.0 °F - -6.0 °F 72% 30.12 in 10.0 mi Calm Calm - N/A   Mostly Cloudy
7:52 AM 5.0 °F - -4.0 °F 66% 30.10 in 10.0 mi Calm Calm - N/A   Clear
8:52 AM 12.0 °F - -2.9 °F 51% 30.07 in 10.0 mi Calm Calm - N/A   Clear
9:52 AM 19.9 °F - -2.9 °F 37% 30.05 in 10.0 mi Calm Calm - N/A   Clear
10:52 AM 26.1 °F - -2.0 °F 30% 30.01 in 10.0 mi Calm Calm - N/A   Partly Cloudy
11:52 AM 32.0 °F 28.7 °F 1.9 °F 28% 29.96 in 10.0 mi South 3.5 mph - N/A   Clear
1:52 PM 39.0 °F - 7.0 °F 27% 29.85 in 10.0 mi Calm Calm - N/A   Clear
2:52 PM 43.0 °F - 10.9 °F 27% 29.82 in 10.0 mi Calm Calm - N/A   Partly Cloudy
3:52 PM 39.9 °F 31.1 °F 15.1 °F 36% 29.80 in 10.0 mi SSE 17.3 mph 27.6 mph N/A   Overcast
4:52 PM 39.9 °F 33.9 °F 15.1 °F 36% 29.78 in 10.0 mi SE 9.2 mph 39.1 mph N/A   Overcast
5:52 PM 36.0 °F 26.3 °F 21.0 °F 55% 29.78 in 10.0 mi SSE 16.1 mph 25.3 mph N/A   Overcast
7:52 PM 37.9 °F 30.5 °F 27.0 °F 65% 29.70 in 10.0 mi SSE 11.5 mph - N/A   Overcast
8:52 PM 37.9 °F 35.5 °F 28.0 °F 68% 29.67 in 10.0 mi South 3.5 mph - N/A   Overcast
10:52 PM 36.0 °F - 28.0 °F 73% 29.59 in 10.0 mi Calm Calm - N/A   Overcast
11:23 PM 35.6 °F 32.8 °F 28.4 °F 75% 29.53 in 10.0 mi WNW 3.5 mph - N/A   Overcast
11:30 PM 33.8 °F - 28.4 °F 81% 29.54 in 9.0 mi Calm Calm - 0.00 in Snow Light Snow
11:52 PM 34.0 °F - 28.9 °F 82% 29.57 in 5.0 mi Calm Calm - 0.00 in Snow Light Snow